This demonstration page uses our WeatherBlox Daily Observations layout. Learn more.

Left ArrowRight Arrow

53.62937, 11.41316

Hourly Observations for April 9, 2015

Temp ( °F °C ) Dew Point ( °F °C ) Humidity (%) Winds ( mph kmh ) Pressure ( in mb ) Visibility ( mi km ) Precip ( " mm )
6:20 am 06:20 Partly Cloudy with Mist and Fog 36 2 36 2 100 100 E 6 9 30.45 1031 1 1 N/A
6:50 am 06:50 Cloudy with Mist and Fog 37 3 37 3 100 100 ESE 3 6 30.45 1031 1 1 N/A
7:20 am 07:20 Mostly Cloudy with Mist and Fog 39 4 39 4 100 100 ESE 2 4 30.45 1031 1 1 N/A
7:50 am 07:50 Mostly Cloudy with Fog 41 5 39 4 93 93 E 2 4 30.45 1031 1 1 N/A
8:20 am 08:20 Cloudy with Mist and Fog 41 5 41 5 100 100 VRB 1 2 30.45 1031 2 4 N/A
8:50 am 08:50 Cloudy with Mist and Fog 43 6 41 5 93 93 VRB 2 4 30.45 1031 3 5 N/A
9:20 am 09:20 Cloudy 45 7 43 6 93 93 S 5 7 30.42 1030 4 6 N/A
9:50 am 09:50 Cloudy 46 8 43 6 87 87 SW 6 9 30.42 1030 4 6 N/A
10:20 am 10:20 Cloudy 48 9 45 7 87 87 S 8 13 30.42 1030 5 8 N/A
10:50 am 10:50 Cloudy 50 10 45 7 82 82 S 8 13 30.42 1030 30 48 N/A
11:20 am 11:20 Cloudy 50 10 43 6 76 76 S 12 19 30.42 1030 30 48 N/A
11:50 am 11:50 Cloudy 50 10 41 5 71 71 SSW 10 17 30.42 1030 30 48 N/A
12:20 pm 12:20 Cloudy 52 11 41 5 67 67 SW 10 17 30.39 1029 30 48 N/A
12:50 pm 12:50 Cloudy 52 11 41 5 67 67 SW 9 15 30.39 1029 30 48 N/A
1:20 pm 13:20 Mostly Cloudy 52 11 41 5 67 67 SSW 8 13 30.39 1029 30 48 N/A
1:50 pm 13:50 Mostly Cloudy 54 12 41 5 63 63 SSW 8 13 30.39 1029 30 48 N/A
2:20 pm 14:20 Mostly Cloudy 54 12 41 5 63 63 SSW 8 13 30.36 1028 30 48 N/A
2:50 pm 14:50 Mostly Cloudy 54 12 41 5 63 63 VRB 5 7 30.36 1028 30 48 N/A
3:20 pm 15:20 Partly Cloudy 54 12 41 5 63 63 SSE 6 9 30.36 1028 30 48 N/A
3:50 pm 15:50 Partly Cloudy 54 12 41 5 63 63 WSW 5 7 30.36 1028 30 48 N/A
4:20 pm 16:20 Partly Cloudy 54 12 41 5 63 63 S 5 7 30.33 1027 30 48 N/A
4:50 pm 16:50 Partly Cloudy 55 13 41 5 59 59 SE 5 7 30.33 1027 30 48 N/A
5:20 pm 17:20 Mostly Sunny 55 13 41 5 59 59 S 5 7 30.33 1027 30 48 N/A
5:50 pm 17:50 Mostly Sunny 55 13 43 6 63 63 SSW 3 6 30.30 1026 7 11 N/A
6:20 pm 18:20 Mostly Sunny 55 13 41 5 59 59 SSE 5 7 30.30 1026 7 11 N/A
6:50 pm 18:50 Mostly Sunny 55 13 43 6 63 63 S 3 6 30.30 1026 7 11 N/A

Powered by AerisWeather